Overview Statistics Trail Chart Weather Telemetry Raw packets
 

This is the latest recevied weather packets stored in our database for station/object KJ5FA-9. If no packets are shown the sender has not sent any weather packets the latest 10 day(s).

<< 9 10 11 12 13 14 15 >>
Time Temp. Humidity Pressure Rain* Wind** Luminosity Snow
1788130764 34.44° C 36% 1015.3 hPa 0 mm - - -
1788129972 35° C 36% 1015.4 hPa 0 mm 0 m/s - -
1788129266 35° C 35% 1015.3 hPa 0 mm - - -
1788128188 36.11° C 32% 1015.2 hPa 0 mm 0 m/s - -
1788127764 35.56° C 33% 1015 hPa 0 mm - - -
1788126372 36.11° C 33% 1015.4 hPa 0 mm 0 m/s - -
1788126264 36.11° C 34% 1015.2 hPa 0 mm - - -
1788124764 36.67° C 32% 1015.4 hPa 0 mm - - -
1788124572 37.22° C 32% 1015.5 hPa 0 mm 0.89 m/s, 242° - -
1788123264 36.67° C 35% 1015.5 hPa 0 mm - - -
1788122772 36.11° C 34% 1015.8 hPa 0 mm 0.45 m/s, 254° - -
1788121764 36.67° C 33% 1016.1 hPa 0 mm - - -
1788120972 36.11° C 35% 1016.2 hPa 0 mm 0 m/s - -
1788120265 35.56° C 36% 1016.3 hPa 0 mm - - -
1788119172 36.11° C 35% 1016.8 hPa 0 mm 1.34 m/s, 82° - -
1788118764 35.56° C 35% 1016.9 hPa 0 mm - - -
1788117371 35.56° C 32% 1017 hPa 0 mm 0.89 m/s, 292° - -
1788117264 35.56° C 33% 1017.1 hPa 0 mm - - -
1788115764 35.56° C 35% 1017.1 hPa 0 mm - - -
1788115572 35° C 34% 1017.2 hPa 0 mm 0 m/s - -
1788114264 35° C 35% 1017.6 hPa 0 mm - - -
1788113772 35° C 36% 1017.5 hPa 0 mm 1.79 m/s, 250° - -
1788112764 34.44° C 37% 1017.7 hPa 0 mm - - -
1788111972 34.44° C 37% 1018.1 hPa 0 mm 0.89 m/s, 275° - -
1788111264 33.89° C 38% 1018 hPa 0 mm - - -

* Rain latest hour (hover to see other rain measurements)
** Current wind speed in m/s (hover to see current wind gust speed)